Location: Diebersbach
(48.5163°N, 8.0558°E)
Time: 18:43:02
(UTC+00:00)

CZ-3B R/B - Visible Passes

Search period start: 21 October 2021 00:00
Search period end: 31 October 2021 00:00
Orbit: 365 x 17301 km, 54.9° (Epoch: 20 October)

Date Brightness Start Highest point End Pass type
(mag) Time Alt. Az. Time Alt. Az. Time Alt. Az.
21 Oct 8.3 02:50:33 10° SSE 04:40:53 43° ESE 05:13:58 10° NE visible
22 Oct 7.5 04:30:13 10° S 06:49:30 70° SE 07:15:51 10° NE visible
23 Oct 8.7 01:55:03 10° SE 03:16:22 29° E 03:48:53 10° NE visible
24 Oct 8.0 03:13:47 10° SSE 05:21:32 55° ESE 05:53:03 10° NE visible
25 Oct 9.1 01:15:21 10° ESE 01:54:51 16° E 02:18:22 10° ENE visible
25 Oct 7.2 05:07:47 10° SSW 07:31:29 81° SE 07:54:06 10° ENE visible
26 Oct 8.4 02:08:16 10° SE 03:55:01 40° ESE 04:29:21 10° NE visible
27 Oct 7.7 03:43:39 10° S 06:03:06 67° SE 06:31:35 10° NE visible
28 Oct 8.8 01:15:41 10° ESE 02:31:07 26° E 03:03:35 10° NE visible
28 Oct 7.0 05:51:28 10° SSW 08:13:17 88° NNW 08:32:10 10° ENE visible
29 Oct 8.2 02:29:29 10° SSE 04:35:08 52° ESE 05:08:33 10° NE visible
30 Oct 9.1 00:40:51 10° E 01:10:20 13° E 01:30:08 10° ENE visible
30 Oct 7.4 04:19:20 10° S 06:45:05 78° SE 07:09:49 10° ENE visible
